Location: Cazaux
(42.8885°N, 0.3850°E)
Time: 14:02:23
(UTC+00:00)

Daily predictions for brighter satellites

Satellite Brightness Start Highest point End
(mag) Time Altitude Azimuth Time Altitude Azimuth Time Altitude Azimuth
Cosmos 921 Rocket 3.1 17:59:00 10° S 18:03:30 73° ESE 18:08:00 10° NNE
CZ-4 R/B 4.5 18:00:21 10° SSE 18:04:25 61° ENE 18:08:30 10° N
Ariane Rocket 4.3 18:00:56 10° ESE 18:04:28 19° ENE 18:08:01 10° NNE
STARLINK-1012 4.4 18:02:05 10° W 18:05:10 34° NNW 18:08:16 10° NE
STARLINK-1026 4.5 18:05:42 10° W 18:08:45 33° NNW 18:11:49 10° NE
STARLINK-1060 3.6 18:05:04 10° SW 18:09:11 78° SE 18:13:20 10° NE
STARLINK-1014 4.2 18:05:54 10° W 18:09:12 40° NNW 18:12:32 10° NE
STARLINK-1013 4.5 18:07:32 10° W 18:10:35 32° NNW 18:13:38 10° NE
CZ-2D R/B 3.7 18:09:35 10° SE 18:13:13 39° ENE 18:16:52 10° N
Meteor 1-10 Rocket 4.5 18:08:28 10° NNW 18:14:04 77° W 18:19:35 10° S
STARLINK-1030 3.6 18:10:04 10° SW 18:14:12 85° SE 18:18:22 10° NE
NOSS 2-3 (C) 3.7 18:14:22 10° SSW 18:18:34 64° ESE 18:23:27 10° NE
STARLINK-1020 3.6 18:15:02 10° SW 18:19:09 89° NW 18:23:19 10° NE
Cosmos 1862 4.1 18:16:05 10° SSW 18:20:01 57° W 18:23:56 10° N
YAOGAN 6 4.0 18:17:46 10° S 18:21:07 42° W 18:24:28 10° NNW
STARLINK-1047 3.7 18:17:25 10° SW 18:21:36 84° NNW 18:25:47 10° NE
SJ 16-02 3.1 18:19:20 10° NNE 18:21:48 14° ENE 18:23:52 11° E
H-2A R/B 3.4 18:19:43 10° ESE 18:23:38 21° ENE 18:27:36 10° NNE
STARLINK-1052 3.7 18:20:02 10° SW 18:24:09 82° NW 18:28:19 10° NE
Cosmos 1725 Rocket 4.4 18:20:59 10° SSW 18:27:08 70° W 18:33:21 10° N
CSL-04 Rocket 3.7 18:22:25 10° SSE 18:27:54 68° ENE 18:33:21 10° N
Cosmos 2263 4.2 18:23:39 10° SSW 18:29:23 72° ESE 18:35:09 10° NNE
Cosmos 1346 Rocket 3.0 18:26:39 10° SSE 18:30:28 45° E 18:34:16 10° NNE
BREEZE-M DEB (TANK) 3.4 18:29:10 10° NW 18:31:47 51° NNE 18:37:09 12° ESE
STARLINK-1033 3.8 18:29:58 10° WSW 18:34:06 71° NW 18:38:08 11° NE
YAOGAN 1 2.5 18:30:05 10° SSE 18:34:24 88° E 18:38:46 10° NNW
Cosmos 1633 Rocket 3.7 18:33:48 10° SSW 18:38:05 60° W 18:42:24 10° N
STARLINK-1038 4.5 18:37:12 10° SSW 18:40:53 32° SE 18:43:12 19° E
STARLINK-1035 4.2 18:37:06 10° WSW 18:41:19 58° NNW 18:45:13 12° NE
CRYOSAT 2 4.3 18:38:09 10° SSE 18:43:00 69° E 18:47:53 10° N
STARLINK-1024 4.0 18:40:01 10° WSW 18:44:06 60° NNW 18:47:43 13° NE
STARLINK-1046 4.3 18:42:02 10° SSW 18:45:49 35° SE 18:47:57 21° E
Aureole 2 Rocket 4.2 18:43:44 10° WSW 18:45:58 24° WNW 18:48:14 10° N
CSL-04 Debris 4.3 18:40:42 10° SSE 18:46:09 83° WSW 18:51:41 10° NNW
NOSS 3-1 (C) 4.4 18:40:55 10° WSW 18:46:11 43° NW 18:52:17 10° NNE
Cosmos 1933 Rocket 3.5 18:41:57 10° S 18:46:18 64° E 18:50:39 10° NNE
Cosmos 2297 Rocket 4.2 18:46:06 10° NNE 18:46:47 10° NE 18:47:28 10° NE
STARLINK-1039 4.2 18:46:54 10° SSW 18:50:45 39° SE 18:52:44 23° E
Meteor 1-20 Rocket 4.2 18:45:35 10° S 18:50:52 53° E 18:56:15 10° NNE
Cosmos 2285 Rocket 4.0 18:45:11 10° NNW 18:51:36 82° ENE 18:58:01 10° SSE
STARLINK-1027 4.5 18:47:52 10° WSW 18:51:59 48° NNW 18:55:28 14° NE
STARLINK-1032 4.3 18:50:02 10° WSW 18:54:04 52° NNW 18:57:17 15° NE
STARLINK-1045 4.1 18:51:49 10° SSW 18:55:43 42° SE 18:57:32 26° E
Cosmos 1943 Rocket 3.5 18:50:43 10° SW 18:55:58 41° WNW 19:01:12 10° NNE
Cosmos 405 3.6 18:54:05 10° N 18:57:22 34° ENE 18:58:22 28° ESE
GPS 2-04 Rocket1 4.2 18:54:03 10° SW 18:57:36 27° S 18:59:25 20° SE
COSMOS 2487 2.7 18:54:53 10° N 18:58:12 42° ENE 18:59:29 29° ESE
CZ-2C R/B 3.9 18:53:40 10° SE 18:58:53 36° ENE 19:04:01 10° N
STARLINK-1011 4.4 18:55:02 10° WSW 18:59:03 48° NNW 19:02:03 17° NE
ADEOS Rocket 3.6 18:51:12 10° NNE 18:59:04 86° ESE 19:06:41 10° SSW
Cosmos 2034 Rocket 4.4 18:53:36 10° SSE 18:59:09 37° E 19:04:44 10° NNE
Cosmos 468 Rocket 4.3 18:55:28 10° S 19:00:26 43° ESE 19:05:27 10° NNE
STARLINK-1050 3.9 18:56:46 10° SSW 19:00:44 48° SE 19:02:25 29° E
Lacrosse 5 rocket 3.8 18:59:24 10° NNW 19:01:52 14° N 19:04:00 11° NE
Cosmos 1340 3.5 18:59:27 10° SSW 19:03:07 52° WNW 19:06:48 10° N
Okean 1 3.8 18:59:29 10° N 19:03:15 37° ENE 19:04:38 28° ESE
STARLINK-1036 4.5 19:00:05 10° WSW 19:04:04 45° NNW 19:06:51 18° NE
Cosmos 724 4.5 18:59:10 10° NW 19:04:57 73° WSW 19:10:46 10° SSE
BREEZE-M DEB (TANK) 4.0 19:03:26 10° NW 19:05:37 26° NNE 19:06:06 25° NNE
Cosmos 2227 Rocket 4.1 19:03:22 10° NNE 19:05:39 12° NE 19:05:52 12° NE
STARLINK-1055 3.8 19:01:40 10° SW 19:05:41 53° SE 19:07:11 33° E
HJ-1C 3.2 19:02:38 10° SSE 19:05:56 86° ENE 19:09:15 10° N
SPOT 3 Rocket 4.4 19:05:25 26° E 19:06:30 28° ENE 19:10:55 10° N
Meteor 1-14 Rocket 4.3 19:04:08 10° SSE 19:09:25 50° E 19:14:46 10° NNE
Meteor 2-11 Rocket 4.4 19:04:12 10° S 19:10:11 62° E 19:16:10 10° NNE
STARLINK-1022 3.7 19:06:37 10° SW 19:10:40 58° SE 19:11:59 38° E
Gbstr 26 Del rocket 2.9 19:08:23 10° SW 19:12:23 76° SE 19:14:28 32° ENE
Cosmos 44 4.1 19:08:50 10° NW 19:13:05 47° WSW 19:17:28 10° S
Cosmos 1939 Rocket 4.5 19:10:20 10° SSW 19:14:11 38° W 19:18:04 10° NNW
Cosmos 1898 Rocket 3.6 19:09:31 10° N 19:14:35 51° ENE 19:17:01 28° SE
STARLINK-1042 3.6 19:11:32 10° SW 19:15:37 64° SE 19:16:45 43° ENE
SJ-11-01 4.1 19:14:29 10° SSE 19:19:10 83° ENE 19:23:51 10° NNW
CZ-4 R/B 4.1 19:16:12 10° SSW 19:19:30 22° W 19:22:48 10° NW
STARLINK-29 3.7 19:17:12 10° WNW 19:20:29 52° SW 19:21:20 39° S
STARLINK-1056 3.5 19:16:29 10° SW 19:20:35 70° SE 19:21:33 49° ENE
STARLINK-1054 3.5 19:21:27 10° SW 19:25:34 76° SE 19:26:20 56° ENE
Cosmos 1763 Rocket 3.4 19:20:45 10° S 19:25:51 60° ESE 19:31:03 10° NNE
Cosmos 1656 Rocket 4.1 19:21:10 10° SW 19:26:36 61° WNW 19:32:10 10° NNE
Cosmos 1570 Rocket 4.2 19:24:22 10° S 19:29:21 46° ESE 19:30:10 43° ENE
Cosmos 2219 4.4 19:25:35 10° N 19:29:58 25° NE 19:29:58 25° NE
STARLINK-1062 3.5 19:26:25 10° SW 19:30:33 83° SE 19:31:07 65° ENE
Meteor 2-4 Rocket 4.1 19:25:38 10° N 19:31:17 44° ENE 19:32:13 41° E
Meteor 1-19 Rocket 4.1 19:25:34 10° N 19:31:22 68° ENE 19:35:18 20° SSE
STARLINK-52 3.9 19:30:18 10° WNW 19:33:32 45° SW 19:33:48 44° SSW
STARLINK-1053 3.5 19:31:22 10° SW 19:35:30 89° SSE 19:35:53 73° ENE
Resurs 01 Rocket 3.8 19:38:51 14° NNE 19:38:51 14° NNE 19:39:43 10° NNE
Cosmos 858 Rocket 4.4 19:33:07 10° NNW 19:38:19 61° ENE 19:39:03 54° ESE
Cosmos 1602 3.9 19:36:05 10° SSW 19:39:57 73° W 19:43:50 10° N
STARLINK-1061 3.5 19:36:21 10° SW 19:40:29 84° NW 19:40:40 80° NNE
Ariane Rocket 3.6 19:37:57 10° S 19:42:58 58° W 19:48:01 10° NNW
Cosmos 220 Rocket 3.8 19:39:43 10° SSW 19:44:02 85° ESE 19:44:02 85° ESE
SL-08 RB Rocket 4.0 19:45:56 50° NNE 19:45:56 50° NNE 19:49:30 10° N
SJ-6B 3.6 19:46:43 40° N 19:46:43 40° N 19:49:14 10° NNW
STARLINK-1067 3.6 19:41:18 10° WSW 19:45:26 78° NW 19:45:26 78° NW
Cosmos 2369 Rocket 4.4 19:41:52 10° WSW 19:46:20 24° NW 19:50:52 10° N
Okean 1-7 3.6 19:43:23 10° NNW 19:47:38 57° W 19:51:19 13° S
Lacrosse 5 1.8 19:42:43 10° SSW 19:47:37 65° SE 19:47:37 65° SE
SL-24 DEB 4.1 19:47:01 51° SSE 19:48:12 86° E 19:52:53 10° N
MetOp-A 4.3 19:50:10 52° NE 19:50:10 52° NE 19:54:55 10° N
STARLINK-1058 3.8 19:46:17 10° WSW 19:50:12 70° WNW 19:50:12 70° WNW
ARGOS Delta rocket 3.8 19:51:19 59° N 19:51:19 59° N 19:55:00 10° N
CENTAUR R/B 4.1 19:46:50 10° NNW 19:53:19 27° NNE 19:54:46 26° NE
STARLINK-1043 4.0 19:51:18 10° WSW 19:55:00 62° WNW 19:55:00 62° WNW
Cosmos 1869 Rocket 4.1 19:54:11 10° SSW 19:58:31 56° W 20:02:50 10° N
Cosmos 990 Rocket 4.2 19:53:29 10° NNW 19:58:36 67° WSW 20:00:11 43° S
STARLINK-1065 4.3 19:56:13 10° WSW 19:59:42 54° WNW 19:59:42 54° WNW
SJ 16-02 1.7 19:56:27 10° NNW 20:00:48 61° WSW 20:00:55 61° WSW
H-2A R/B 2.6 19:57:36 12° S 20:02:34 58° W 20:07:58 10° NNW
ARGOS 3.4 20:01:41 26° S 20:04:46 66° WSW 20:10:12 10° NNW
ATLAS 3B R/B 4.3 20:00:16 10° NNW 20:04:50 19° NNE 20:05:09 19° NNE
Cosmos 1937 Rocket 3.5 20:03:10 10° NNW 20:08:26 76° WSW 20:08:35 75° SW
Cosmos 44 Rocket 4.1 20:18:09 10° NW 20:21:43 47° WNW 20:21:43 47° WNW
USA 238 DEB 4.1 20:24:27 10° NNW 20:30:43 53° NNE 20:30:43 53° NNE
USA 238 4.1 20:24:33 10° NNW 20:30:48 53° NNE 20:30:48 53° NNE
Cosmos 2297 Rocket 3.5 20:26:42 10° NNW 20:29:41 30° N 20:29:41 30° N
USA 267 4.3 20:36:32 33° SSW 20:36:32 33° SSW 20:39:57 10° SW
Lacrosse 5 rocket 4.1 20:38:23 10° NNW 20:39:39 16° NNW 20:39:39 16° NNW
Cosmos 2227 Rocket 3.8 20:45:15 10° NNW 20:47:42 26° NNW 20:47:42 26° NNW
BREEZE-M DEB (TANK) 4.3 20:43:38 10° WNW 20:56:33 51° NNW 20:56:33 51° NNW
USA 234 4.3 21:09:15 38° NNW 21:09:15 38° NNW 21:13:32 10° NW
CENTAUR R/B 4.0 21:37:10 10° NW 21:41:57 41° NNW 21:41:57 41° NNW
